GW2188 Weather Reports


time (UTC)temp
C
wind
direction
speed
KPH
gust
KPH
rain 1hr
cm
rain 24hr
cm
rain mn
cm
humidity
%
barometer
mb
20260510120503 14 285 0.0 8.0 0.00 0.00 0.00 82 1015.7
20260510115545 13 293 0.0 4.8 0.00 0.00 0.00 87 1015.7
20260510115030 12 17 1.6 8.0 0.00 0.00 0.00 91 1015.5
20260510114530 11 335 3.2 8.0 0.00 0.00 0.00 93 1015.5
20260510114010 11 107 0.0 0.0 0.00 0.00 0.00 94 1015.3
20260510113556 11 107 0.0 1.6 0.00 0.00 0.00 94 1015.3
20260510113053 10 107 0.0 1.6 0.00 0.00 0.00 93 1015.3
20260510112538 10 107 0.0 0.0 0.00 0.00 0.00 93 1015.1
20260510112022 10 107 0.0 0.0 0.00 0.00 0.00 93 1014.9
20260510111523 10 107 0.0 0.0 0.00 0.00 0.00 93 1014.9
20260510111004 10 107 0.0 1.6 0.00 0.00 0.00 93 1015.0
20260510110553 10 107 0.0 1.6 0.00 0.00 0.00 93 1015.1
20260510110013 10 107 0.0 1.6 0.00 0.00 0.00 92 1015.1
20260510105553 10 107 0.0 1.6 0.00 0.00 0.00 92 1015.1
20260510105036 9 107 0.0 3.2 0.00 0.00 0.00 91 1015.1
20260510104535 9 107 0.0 3.2 0.00 0.00 0.00 91 1015.1
20260510104019 9 107 0.0 0.0 0.00 0.00 0.00 90 1014.9
20260510103502 9 107 0.0 0.0 0.00 0.00 0.00 90 1014.8
20260510103101 10 107 0.0 1.6 0.00 0.00 0.00 90 1014.7
20260510102540 10 107 0.0 1.6 0.00 0.00 0.00 90 1014.7
20260510102020 10 107 0.0 1.6 0.00 0.00 0.00 90 1014.6
20260510101529 10 107 0.0 1.6 0.00 0.00 0.00 90 1014.5
20260510101001 10 107 0.0 0.0 0.00 0.00 0.00 90 1014.6
20260510100548 10 107 0.0 0.0 0.00 0.00 0.00 90 1014.4
20260510100007 10 107 0.0 0.0 0.00 0.00 0.00 90 1014.3
20260510095554 10 107 0.0 0.0 0.00 0.00 0.00 90 1014.4
20260510095039 10 107 0.0 6.4 0.00 0.00 0.00 90 1014.2
20260510094603 10 107 0.0 6.4 0.00 0.00 0.00 90 1014.2
20260510094044 10 82 0.0 3.2 0.00 0.00 0.00 90 1014.2
20260510093528 10 118 0.0 3.2 0.00 0.00 0.00 90 1014.2
20260510093024 10 118 1.6 3.2 0.00 0.00 0.00 90 1014.1
20260510092508 10 355 0.0 0.0 0.00 0.00 0.00 90 1014.1
20260510092055 10 355 0.0 0.0 0.00 0.00 0.00 90 1014.1
20260510091515 10 355 0.0 0.0 0.00 0.00 0.00 90 1013.9
20260510091102 10 355 0.0 0.0 0.00 0.00 0.00 90 1013.8
20260510090547 10 355 0.0 0.0 0.00 0.00 0.00 89 1013.7
20260510090045 10 355 0.0 0.0 0.00 0.00 0.00 89 1013.8
20260510085525 10 355 0.0 0.0 0.00 0.00 0.00 89 1013.6
20260510085009 10 355 0.0 0.0 0.00 0.00 0.00 89 1013.6
20260510084510 10 355 0.0 0.0 0.00 0.00 0.00 89 1013.5
20260510084057 10 355 0.0 0.0 0.00 0.00 0.00 89 1013.6
20260510083542 10 355 0.0 0.0 0.00 0.00 0.00 89 1013.6
20260510083052 11 355 0.0 0.0 0.00 0.00 0.00 89 1013.4
20260510082519 11 355 0.0 0.0 0.00 0.00 0.00 89 1013.5
20260510082001 11 355 0.0 0.0 0.00 0.00 0.00 89 1013.5
20260510081524 11 355 0.0 0.0 0.00 0.00 0.00 89 1013.5
20260510081008 11 355 0.0 0.0 0.00 0.00 0.00 88 1013.5
20260510080557 11 355 0.0 0.0 0.00 0.00 0.00 88 1013.6
20260510080053 11 355 0.0 0.0 0.00 0.00 0.00 88 1013.3
20260510075539 11 355 0.0 0.0 0.00 0.00 0.00 88 1013.4
20260510075021 11 355 0.0 0.0 0.00 0.00 0.00 87 1013.5
20260510074545 11 355 0.0 0.0 0.00 0.00 0.00 87 1013.5
20260510074029 11 355 0.0 0.0 0.00 0.00 0.00 87 1013.5
20260510073516 11 355 0.0 0.0 0.00 0.00 0.00 87 1013.5
20260510073034 11 355 0.0 0.0 0.00 0.00 0.00 87 1013.4
20260510072516 11 355 0.0 0.0 0.00 0.00 0.00 87 1013.5
20260510072104 11 355 0.0 0.0 0.00 0.00 0.00 87 1013.5
20260510071602 11 355 0.0 0.0 0.00 0.00 0.00 87 1013.6
20260510071045 11 355 0.0 0.0 0.00 0.00 0.00 87 1013.5
20260510070528 11 355 0.0 0.0 0.00 0.00 0.00 87 1013.5
20260510070051 11 355 0.0 0.0 0.00 0.00 0.00 87 1013.5
20260510065537 11 355 0.0 0.0 0.00 0.00 0.00 86 1013.5
20260510065019 11 355 0.0 0.0 0.00 0.00 0.00 86 1013.5
20260510064528 11 355 0.0 0.0 0.00 0.00 0.00 86 1013.4
20260510064000 11 355 0.0 0.0 0.00 0.00 0.00 86 1013.4
20260510063548 11 355 0.0 0.0 0.00 0.00 0.00 86 1013.4
20260510063007 11 36 0.0 0.0 0.00 0.00 0.00 86 1013.5
20260510062552 11 36 0.0 0.0 0.00 0.00 0.00 86 1013.5
20260510062038 11 36 0.0 0.0 0.00 0.00 0.00 86 1013.5
20260510061537 11 36 0.0 0.0 0.00 0.00 0.00 85 1013.7
20260510061021 11 36 0.0 0.0 0.00 0.00 0.00 85 1013.6
20260510060505 11 36 0.0 0.0 0.00 0.00 0.00 85 1013.5
20260510060002 11 36 0.0 0.0 0.00 0.00 0.00 85 1013.7
20260510055550 11 36 0.0 0.0 0.00 0.00 0.00 84 1013.6
20260510055031 11 36 0.0 0.0 0.00 0.00 0.00 84 1013.7
20260510054532 11 36 0.0 0.0 0.00 0.00 0.00 84 1013.7
20260510054016 11 36 0.0 0.0 0.00 0.00 0.00 83 1013.9
20260510053602 11 36 0.0 0.0 0.00 0.00 0.00 83 1013.8
20260510053024 11 36 0.0 0.0 0.00 0.00 0.00 82 1013.9
20260510052502 11 36 0.0 0.0 0.00 0.00 0.00 82 1013.9
20260510052049 11 36 0.0 0.0 0.00 0.00 0.00 82 1014.0
20260510051554 12 315 0.0 0.0 0.00 0.00 0.00 82 1014.0
20260510051037 12 315 0.0 0.0 0.00 0.00 0.00 82 1013.9
20260510050518 12 315 0.0 0.0 0.00 0.00 0.00 82 1013.9
20260510050016 12 315 0.0 0.0 0.00 0.00 0.00 82 1013.8
20260510045605 12 315 0.0 1.6 0.00 0.00 0.00 82 1013.9
20260510045046 12 315 0.0 4.8 0.00 0.00 0.00 81 1013.8
20260510044514 12 5 0.0 4.8 0.00 0.00 0.00 82 1013.9
20260510044049 12 50 0.0 1.6 0.00 0.00 0.00 81 1013.9
20260510043533 12 50 0.0 1.6 0.00 0.00 0.00 81 1013.9
20260510043029 12 50 0.0 1.6 0.00 0.00 0.00 80 1013.7
20260510042513 12 50 0.0 1.6 0.00 0.00 0.00 80 1013.7
20260510042059 12 50 0.0 3.2 0.00 0.00 0.00 80 1013.7
20260510041520 12 50 0.0 3.2 0.00 0.00 0.00 80 1013.6
20260510041002 12 251 0.0 3.2 0.00 0.00 0.00 80 1013.6
20260510040551 12 251 0.0 1.6 0.00 0.00 0.00 80 1013.5
20260510040039 12 251 0.0 3.2 0.00 0.00 0.00 80 1013.6
20260510035520 12 251 0.0 3.2 0.00 0.00 0.00 80 1013.4
20260510035004 12 251 0.0 6.4 0.00 0.00 0.00 80 1013.5
20260510034528 12 251 1.6 6.4 0.00 0.00 0.00 79 1013.4
20260510034011 12 261 0.0 0.0 0.00 0.00 0.00 79 1013.3
20260510033557 12 360 0.0 0.0 0.00 0.00 0.00 78 1013.1
20260510033119 12 360 0.0 0.0 0.00 0.00 0.00 78 1013.3
20260510032538 12 360 0.0 0.0 0.00 0.00 0.00 78 1013.2
20260510032022 12 360 0.0 0.0 0.00 0.00 0.00 78 1013.3
20260510031523 12 360 0.0 0.0 0.00 0.00 0.00 78 1013.3
20260510031005 12 253 0.0 3.2 0.00 0.00 0.00 78 1013.2
20260510030550 12 253 0.0 3.2 0.00 0.00 0.00 78 1013.2
20260510030018 12 253 0.0 0.0 0.00 0.00 0.00 77 1013.0
20260510025556 13 253 0.0 0.0 0.00 0.00 0.00 77 1013.0
20260510025040 13 253 0.0 0.0 0.00 0.00 0.00 77 1013.0
20260510024539 13 253 0.0 0.0 0.00 0.00 0.00 76 1013.0
20260510024022 13 253 0.0 0.0 0.00 0.00 0.00 75 1013.0
20260510023510 13 253 0.0 1.6 0.00 0.00 0.00 75 1013.0
20260510023030 13 250 0.0 0.0 0.00 0.00 0.00 74 1013.0
20260510022506 13 247 0.0 0.0 0.00 0.00 0.00 74 1013.0
20260510022053 13 243 0.0 0.0 0.00 0.00 0.00 73 1012.9
20260510021519 13 243 0.0 0.0 0.00 0.00 0.00 73 1012.9
20260510021059 13 243 0.0 0.0 0.00 0.00 0.00 73 1012.7
20260510020543 14 243 0.0 0.0 0.00 0.00 0.00 72 1012.7
20260510020042 14 243 0.0 0.0 0.00 0.00 0.00 72 1012.7
20260510015527 14 243 0.0 0.0 0.00 0.00 0.00 72 1012.6
20260510015010 14 243 0.0 3.2 0.00 0.00 0.00 72 1012.6
20260510014533 14 243 0.0 3.2 0.00 0.00 0.00 71 1012.6
20260510014019 14 243 0.0 3.2 0.00 0.00 0.00 71 1012.4
20260510013502 15 243 0.0 3.2 0.00 0.00 0.00 70 1012.5
20260510013022 15 243 0.0 3.2 0.00 0.00 0.00 70 1012.4
20260510012506 15 243 0.0 3.2 0.00 0.00 0.00 69 1012.3
20260510012054 15 243 0.0 4.8 0.00 0.00 0.00 69 1012.2
20260510011553 15 244 0.0 4.8 0.00 0.00 0.00 69 1012.0
20260510011036 15 247 0.0 3.2 0.00 0.00 0.00 68 1011.9
20260510010520 15 159 0.0 0.0 0.00 0.00 0.00 68 1011.9
20260510010017 15 159 0.0 3.2 0.00 0.00 0.00 67 1011.7
20260510005502 15 240 0.0 4.8 0.00 0.00 0.00 67 1011.8
20260510005047 15 240 0.0 3.2 0.00 0.00 0.00 67 1011.7
20260510004508 16 240 0.0 4.8 0.00 0.00 0.00 67 1011.5
20260510004055 16 254 1.6 4.8 0.00 0.00 0.00 66 1011.5
20260510003535 16 273 1.6 4.8 0.00 0.00 0.00 66 1011.3
20260510003032 16 255 0.0 1.6 0.00 0.00 0.00 66 1011.3
20260510002515 16 255 0.0 3.2 0.00 0.00 0.00 65 1011.1
20260510002103 16 255 1.6 3.2 0.00 0.00 0.00 64 1011.1
20260510001522 16 265 0.0 3.2 0.00 0.00 0.00 64 1011.1
20260510001006 17 269 0.0 3.2 0.00 0.00 0.00 63 1011.1
20260510000553 17 269 0.0 3.2 0.00 0.00 0.00 62 1011.0
20260510000010 17 267 0.0 3.2 0.00 0.00 0.00 61 1011.0
20260509235557 17 268 0.0 3.2 0.00 0.00 0.00 60 1011.0
20260509235043 17 254 0.0 4.8 0.00 0.00 0.00 59 1010.9
20260509234544 18 246 0.0 4.8 0.00 0.00 0.00 59 1011.0
20260509234025 18 355 0.0 6.4 0.00 0.00 0.00 58 1011.0
20260509233510 18 299 1.6 6.4 0.00 0.00 0.00 57 1011.0
20260509233030 18 82 0.0 6.4 0.00 0.00 0.00 57 1010.8
20260509232514 18 227 0.0 4.8 0.00 0.00 0.00 56 1010.7
20260509232101 18 139 0.0 6.4 0.00 0.00 0.00 56 1010.9
20260509231521 19 123 0.0 6.4 0.00 0.00 0.00 55 1010.8
20260509231004 19 317 0.0 9.7 0.00 0.00 0.00 54 1010.8
20260509230551 19 315 3.2 9.7 0.00 0.00 0.00 54 1010.8
20260509230053 19 311 1.6 11.3 0.00 0.00 0.00 53 1010.9
20260509225535 19 268 1.6 9.7 0.00 0.00 0.00 53 1010.9
20260509225014 20 112 3.2 8.0 0.00 0.00 0.00 53 1011.0
20260509224546 20 248 0.0 6.4 0.00 0.00 0.00 55 1011.0
20260509224021 19 14 1.6 11.3 0.00 0.00 0.00 53 1011.0
20260509223509 19 207 4.8 11.3 0.00 0.00 0.00 53 1011.1
20260509223003 19 55 0.0 12.9 0.00 0.00 0.00 54 1011.2
20260509222551 19 343 1.6 19.3 0.00 0.00 0.00 53 1011.2
20260509222036 19 246 3.2 19.3 0.00 0.00 0.00 53 1011.2
20260509221533 19 47 1.6 9.7 0.00 0.00 0.00 54 1011.1
20260509221017 19 219 3.2 9.7 0.00 0.00 0.00 53 1011.2
20260509220603 19 81 1.6 9.7 0.00 0.00 0.00 54 1011.2
20260509220021 19 286 3.2 9.7 0.00 0.00 0.00 53 1011.2
20260509215507 19 338 3.2 8.0 0.00 0.00 0.00 53 1011.2
20260509215050 19 290 1.6 19.3 0.00 0.00 0.00 54 1011.3
20260509214546 19 322 4.8 19.3 0.00 0.00 0.00 54 1011.3
20260509214029 18 225 3.2 11.3 0.00 0.00 0.00 56 1011.3
20260509213508 18 42 0.0 11.3 0.00 0.00 0.00 57 1011.4
20260509213026 18 285 3.2 11.3 0.00 0.00 0.00 56 1011.4
20260509212510 18 148 3.2 12.9 0.00 0.00 0.00 56 1011.3
20260509212058 18 284 1.6 12.9 0.00 0.00 0.00 55 1011.3
20260509211558 19 183 6.4 14.5 0.00 0.00 0.00 55 1011.2
20260509211042 19 48 3.2 14.5 0.00 0.00 0.00 55 1011.1
20260509210525 19 165 3.2 12.9 0.00 0.00 0.00 54 1011.1
20260509210049 19 13 4.8 22.5 0.00 0.00 0.00 54 1011.0
20260509205528 19 331 8.0 22.5 0.00 0.00 0.00 54 1011.1
20260509205011 19 241 4.8 14.5 0.00 0.00 0.00 55 1011.0
20260509204511 18 120 6.4 14.5 0.00 0.00 0.00 55 1011.0
20260509204058 18 240 6.4 14.5 0.00 0.00 0.00 54 1011.1
20260509203544 18 243 3.2 16.1 0.00 0.00 0.00 56 1011.0
20260509203051 19 235 8.0 16.1 0.00 0.00 0.00 54 1011.0
20260509202522 19 265 4.8 9.7 0.00 0.00 0.00 56 1010.8
20260509202008 18 168 3.2 12.9 0.00 0.00 0.00 59 1011.0
20260509201528 18 224 6.4 16.1 0.00 0.00 0.00 58 1011.0
20260509201015 18 252 4.8 16.1 0.00 0.00 0.00 58 1011.1
20260509200559 18 229 1.6 11.3 0.00 0.00 0.00 58 1011.1
20260509200057 18 292 4.8 12.9 0.00 0.00 0.00 58 1011.1
20260509195542 18 182 4.8 12.9 0.00 0.00 0.00 58 1011.3
20260509195022 18 251 6.4 12.9 0.00 0.00 0.00 58 1011.1
20260509194526 18 355 3.2 11.3 0.00 0.00 0.00 58 1011.2
20260509194007 18 265 8.0 14.5 0.00 0.00 0.00 57 1011.2
20260509193555 18 336 1.6 16.1 0.00 0.00 0.00 57 1011.3
20260509193053 18 282 3.2 16.1 0.00 0.00 0.00 56 1011.3
20260509192534 18 241 4.8 11.3 0.00 0.00 0.00 55 1011.2
20260509192018 18 348 3.2 16.1 0.00 0.00 0.00 56 1011.2
20260509191518 18 327 6.4 20.9 0.00 0.00 0.00 55 1011.1
20260509191104 18 283 4.8 20.9 0.00 0.00 0.00 56 1011.2
20260509190546 18 15 3.2 14.5 0.00 0.00 0.00 56 1011.2
20260509190009 18 309 3.2 16.1 0.00 0.00 0.00 56 1011.2
20260509185550 18 261 8.0 16.1 0.00 0.00 0.00 55 1011.2
20260509185034 18 350 4.8 14.5 0.00 0.00 0.00 57 1011.2
20260509184556 18 308 1.6 14.5 0.00 0.00 0.00 58 1011.2
20260509184039 17 320 3.2 11.3 0.00 0.00 0.00 59 1011.2
20260509183523 17 210 1.6 19.3 0.00 0.00 0.00 58 1011.3
20260509183019 17 232 8.0 19.3 0.00 0.00 0.00 57 1011.3
20260509182501 17 250 6.4 14.5 0.00 0.00 0.00 58 1011.3
20260509182049 17 297 1.6 12.9 0.00 0.00 0.00 58 1011.3
20260509181509 17 222 4.8 17.7 0.00 0.00 0.00 57 1011.4
20260509181056 17 267 3.2 17.7 0.00 0.00 0.00 56 1011.3
20260509180539 17 225 1.6 16.1 0.00 0.00 0.00 58 1011.4
20260509180105 17 126 8.0 16.1 0.00 0.00 0.00 57 1011.4
20260509175521 17 25 1.6 9.7 0.00 0.00 0.00 57 1011.4
20260509175003 17 317 3.2 16.1 0.00 0.00 0.00 57 1011.4
20260509174501 17 196 6.4 17.7 0.00 0.00 0.00 56 1011.5
20260509174048 17 252 3.2 17.7 0.00 0.00 0.00 57 1011.6
20260509173531 17 29 6.4 14.5 0.00 0.00 0.00 56 1011.5
20260509173107 17 27 1.6 9.7 0.00 0.00 0.00 57 1011.4
20260509172534 17 76 1.6 16.1 0.00 0.00 0.00 57 1011.5
20260509172016 17 50 1.6 14.5 0.00 0.00 0.00 55 1011.6
20260509171514 17 66 6.4 14.5 0.00 0.00 0.00 54 1011.6
20260509171102 17 355 3.2 11.3 0.00 0.00 0.00 54 1011.6
20260509170546 18 100 4.8 20.9 0.00 0.00 0.00 53 1011.5
20260509170005 18 77 11.3 17.7 0.00 0.00 0.00 53 1011.6
20260509165552 17 63 6.4 19.3 0.00 0.00 0.00 54 1011.6
20260509165034 17 146 8.0 19.3 0.00 0.00 0.00 54 1011.6
20260509164531 17 231 6.4 17.7 0.00 0.00 0.00 54 1011.7
20260509164011 17 29 1.6 14.5 0.00 0.00 0.00 56 1011.8
20260509163557 17 90 0.0 14.5 0.00 0.00 0.00 55 1011.8
20260509163021 17 80 3.2 12.9 0.00 0.00 0.00 57 1011.9
20260509162559 16 40 3.2 12.9 0.00 0.00 0.00 55 1011.8
20260509162040 16 91 6.4 12.9 0.00 0.00 0.00 54 1011.7
20260509161541 16 97 3.2 14.5 0.00 0.00 0.00 56 1011.7
20260509161017 16 48 3.2 6.4 0.00 0.00 0.00 55 1011.9
20260509160502 16 27 1.6 9.7 0.00 0.00 0.00 57 1011.7
20260509160057 16 92 1.6 11.3 0.00 0.00 0.00 57 1011.7
20260509155543 15 40 6.4 11.3 0.00 0.00 0.00 58 1011.7
20260509155025 15 30 3.2 11.3 0.00 0.00 0.00 59 1011.7
20260509154517 15 92 1.6 11.3 0.00 0.00 0.00 60 1011.8
20260509154103 15 121 6.4 12.9 0.00 0.00 0.00 57 1011.8
20260509153550 15 123 4.8 12.9 0.00 0.00 0.00 58 1011.9
20260509153037 15 124 3.2 11.3 0.00 0.00 0.00 58 1011.9
20260509152522 15 121 3.2 8.0 0.00 0.00 0.00 60 1012.1
20260509152006 15 30 3.2 6.4 0.00 0.00 0.00 60 1012.1
20260509151526 15 132 3.2 9.7 0.00 0.00 0.00 59 1012.1
20260509151011 15 89 4.8 9.7 0.00 0.00 0.00 60 1012.1
20260509150600 15 89 1.6 6.4 0.00 0.00 0.00 60 1012.1
20260509150055 15 192 0.0 0.0 0.00 0.00 0.00 63 1012.3
20260509145541 15 192 0.0 0.0 0.00 0.00 0.00 64 1012.3
20260509145027 15 192 0.0 0.0 0.00 0.00 0.00 65 1012.5
20260509144532 15 192 0.0 0.0 0.00 0.00 0.00 66 1012.6
20260509144016 15 192 0.0 0.0 0.00 0.00 0.00 63 1012.3
20260509143504 15 355 0.0 0.0 0.00 0.00 0.00 65 1012.2
20260509143010 15 113 0.0 0.0 0.00 0.00 0.00 66 1012.3
20260509142555 15 178 0.0 6.4 0.00 0.00 0.00 66 1012.1
20260509142044 15 87 0.0 8.0 0.00 0.00 0.00 64 1012.1
20260509141516 15 105 1.6 6.4 0.00 0.00 0.00 68 1012.2
20260509141059 15 88 1.6 9.7 0.00 0.00 0.00 66 1012.1
20260509140547 14 96 1.6 9.7 0.00 0.00 0.00 68 1012.2
20260509140054 14 43 1.6 12.9 0.00 0.00 0.00 68 1012.1
20260509135550 14 86 4.8 12.9 0.00 0.00 0.00 66 1012.2
20260509135041 14 74 1.6 8.0 0.00 0.00 0.00 67 1012.2
20260509134552 14 173 0.0 6.4 0.00 0.00 0.00 68 1012.1
20260509134049 13 74 0.0 6.4 0.00 0.00 0.00 70 1012.1
20260509133540 13 44 0.0 6.4 0.00 0.00 0.00 71 1012.3
20260509133105 13 83 0.0 6.4 0.00 0.00 0.00 71 1012.2
20260509132548 13 71 1.6 6.4 0.00 0.00 0.00 71 1012.3
20260509132040 12 94 0.0 4.8 0.00 0.00 0.00 72 1012.5
20260509131553 12 186 0.0 4.8 0.00 0.00 0.00 72 1012.4
20260509131047 12 103 0.0 4.8 0.00 0.00 0.00 72 1012.6
20260509130541 12 305 0.0 1.6 0.00 0.00 0.00 75 1012.5
20260509130101 12 305 0.0 1.6 0.00 0.00 0.00 76 1012.7
20260509125548 11 305 0.0 1.6 0.00 0.00 0.00 76 1012.6
20260509125041 11 305 0.0 1.6 0.00 0.00 0.00 77 1012.6
20260509124552 11 296 0.0 1.6 0.00 0.00 0.00 78 1012.4
20260509124045 11 296 0.0 3.2 0.00 0.00 0.00 79 1012.5
20260509123540 11 294 0.0 0.0 0.00 0.00 0.00 79 1012.6
20260509123054 11 294 0.0 0.0 0.00 0.00 0.00 79 1012.6
20260509122547 11 294 0.0 0.0 0.00 0.00 0.00 78 1012.6
20260509122043 11 294 0.0 0.0 0.00 0.00 0.00 78 1012.7
20260509121514 10 294 0.0 0.0 0.00 0.00 0.00 78 1012.6